User: anonymous   Login
Location: Cahoon Acres
(40.8736°N, 111.8994°W)
Time: 18:54:59
(UTC+00:00)
Language:

Vanguard 1 Rocket - Orbit

View from above orbital plane
View from above orbital plane
View from above satellite
View from above satellite

Ground track
Ground track

The orbit data is extracted from the following two-line orbital elements,

1    16U 58002A   20158.37054341 +.00000040 +00000-0 +39496-4 0  9994
2    16 034.2613 186.5363 2025170 191.0731 163.7783 10.48687127457677
Epoch (UTC): 06 June 2020 08:53:34
Eccentricity: 0.2025170
inclination: 34.2613°
perigee height: 653 km
apogee height: 4224 km
right ascension of ascending node: 186.5363°
argument of perigee: 191.0731°
revolutions per day: 10.48687127
mean anomaly at epoch: 163.7783°
orbit number at epoch: 45767

The dashed part of the orbit path shows where the satellite is in the earth's shadow,  

DLR